{"data":{"norad_id":65960,"intl_designator":"2025-228P","name":"KUIPER-00134","alt_names":[],"object_type":"PAYLOAD","status":"ACTIVE","operator":null,"country":"US","launch_date":"2025-10-14","launch_site_code":"AFETR","launch_vehicle":null,"mission":null,"orbit_class":"UNKNOWN","rcs_meters":null,"size_class":null,"mass_kg":null,"dimensions":null,"purposes":[],"wikipedia_slug":null,"has_3d_model":false,"image_url":null,"decayed_at":null,"tle_current":{"epoch":"2026-09-20T22:05:22.721568Z","epoch_age_seconds":107368,"freshness":"FRESH","line1":"1 65960U 25228P   26263.92040187  .00024757  00000+0  66091-3 0  9994","line2":"2 65960  51.8694  92.6074 0004091 276.0646  83.9875 15.37962201 53873","mean_motion":15.37962201,"eccentricity":0.0004091,"inclination_deg":51.8694,"raan_deg":92.6074,"arg_perigee_deg":276.0646,"mean_anomaly_deg":83.9875,"bstar":0.00066091,"rev_number":5387,"period_min":93.630389554678,"perigee_km":449.3418043867,"apogee_km":454.93033381184,"semimajor_km":6830.2730690993,"source":"CELESTRAK","updated_at":"2026-09-21T09:00:15.681271Z"}}}